Weather History for KEFT - May, 2014

Change the Weather History Date:

Wednesday, May 7, 2014

  Actual Average Record
Temperature  
Mean Temperature 60 °F -  
Max Temperature 71 °F 0 °F 80 °F (2000)
Min Temperature 50 °F - 37 °F (2006)
Degree Days  
Heating Degree Days 4    
Growing Degree Days 10 (Base 50)    
Moisture  
Dew Point 44 °F    
Average Humidity 61    
Maximum Humidity 82    
Minimum Humidity 46    
Precipitation  
Precipitation 0.00 in - - ()
Sea Level Pressure  
Sea Level Pressure 29.79 in    
Wind  
Wind Speed 12 mph (ENE)    
Max Wind Speed 17 mph    
Max Gust Speed 23 mph    
Visibility 10 miles    
Events      
Averages and records for this station are not official NWS values.
T = Trace of Precipitation, MM = Missing Value Source: NWS Daily Summary

Daily Weather History Graph

Daily Weather History Graph

Search for Another Location

Airport or City:

Trip Planner

Search our weather history database for the weather conditions in past years. The results will help you decide how hot, cold, wet, or windy it might be!

Date:

Astronomy

May. 07, 2014 Rise Set
Actual Time 5:45 AM CDT 8:05 PM CDT
Civil Twilight 5:13 AM CDT 8:36 PM CDT
Nautical Twilight 4:34 AM CDT 9:15 PM CDT
Astronomical Twilight 3:51 AM CDT 9:59 PM CDT
Moon 1:01 PM CDT (5/7) 1:53 AM CDT (5/7)
Length of Visible Light 15h 23m
Length of Day
14h 20m
First Quarter, 55% of the Moon is Illuminated
May 7
First Quarter
May 14
Full
May 21
Last Quarter
May 28
New
Jun 5
First Quarter

Hourly Weather History & Observations

Time (CDT) Temp. Dew Point Humidity Pressure Visibility Wind Dir Wind Speed Gust Speed Precip Events Conditions
12:15 AM 50.0 °F 35.6 °F 58% 29.84 in 10.0 mi ENE 15.0 mph 19.6 mph N/A   Overcast
12:35 AM 50.0 °F 35.6 °F 58% 29.84 in 10.0 mi ENE 10.4 mph 17.3 mph N/A   Overcast
12:55 AM 50.0 °F 35.6 °F 58% 29.83 in 10.0 mi ENE 12.7 mph 19.6 mph N/A   Overcast
1:15 AM 50.0 °F 35.6 °F 58% 29.82 in 10.0 mi ENE 11.5 mph - N/A   Overcast
1:30 AM 50.0 °F 37.4 °F 62% 29.81 in 10.0 mi ENE 15.0 mph 19.6 mph N/A   Mostly Cloudy
1:55 AM 50.0 °F 37.4 °F 62% 29.80 in 10.0 mi ENE 11.5 mph 19.6 mph N/A   Clear
2:15 AM 50.0 °F 37.4 °F 62% 29.79 in 10.0 mi ENE 13.8 mph - N/A   Scattered Clouds
2:35 AM 50.0 °F 37.4 °F 62% 29.78 in 10.0 mi ENE 9.2 mph - N/A   Scattered Clouds
2:55 AM 50.0 °F 37.4 °F 62% 29.78 in 10.0 mi ENE 11.5 mph - N/A   Scattered Clouds
3:15 AM 50.0 °F 37.4 °F 62% 29.78 in 10.0 mi ENE 11.5 mph 16.1 mph N/A   Scattered Clouds
3:35 AM 50.0 °F 37.4 °F 62% 29.78 in 10.0 mi ENE 9.2 mph - N/A   Scattered Clouds
3:55 AM 50.0 °F 37.4 °F 62% 29.78 in 10.0 mi East 11.5 mph 16.1 mph N/A   Scattered Clouds
4:15 AM 50.0 °F 37.4 °F 62% 29.78 in 10.0 mi East 9.2 mph - N/A   Scattered Clouds
4:35 AM 50.0 °F 37.4 °F 62% 29.78 in 10.0 mi East 10.4 mph - N/A   Clear
4:55 AM 50.0 °F 37.4 °F 62% 29.77 in 10.0 mi East 12.7 mph 17.3 mph N/A   Clear
5:15 AM 50.0 °F 37.4 °F 62% 29.78 in 10.0 mi East 12.7 mph - N/A   Clear
5:35 AM 50.0 °F 37.4 °F 62% 29.78 in 10.0 mi East 11.5 mph 17.3 mph N/A   Scattered Clouds
5:55 AM 50.0 °F 37.4 °F 62% 29.79 in 10.0 mi ENE 11.5 mph - N/A   Mostly Cloudy
6:15 AM 50.0 °F 37.4 °F 62% 29.79 in 10.0 mi East 11.5 mph - N/A   Scattered Clouds
6:35 AM 50.0 °F 37.4 °F 62% 29.80 in 10.0 mi East 17.3 mph 23.0 mph N/A   Clear
6:55 AM 50.0 °F 37.4 °F 62% 29.80 in 10.0 mi East 11.5 mph 20.7 mph N/A   Clear
7:15 AM 50.0 °F 37.4 °F 62% 29.80 in 10.0 mi ENE 12.7 mph 20.7 mph N/A   Clear
7:35 AM 51.8 °F 39.2 °F 62% 29.82 in 10.0 mi East 11.5 mph 17.3 mph N/A   Clear
7:55 AM 51.8 °F 39.2 °F 62% 29.82 in 10.0 mi East 16.1 mph 21.9 mph N/A   Clear
8:15 AM 53.6 °F 39.2 °F 58% 29.82 in 10.0 mi East 16.1 mph 20.7 mph N/A   Mostly Cloudy
8:35 AM 53.6 °F 39.2 °F 58% 29.82 in 10.0 mi East 15.0 mph 21.9 mph N/A   Mostly Cloudy
8:55 AM 53.6 °F 41.0 °F 62% 29.82 in 10.0 mi East 11.5 mph 20.7 mph N/A   Scattered Clouds
9:10 AM 55.4 °F 41.0 °F 58% 29.82 in 10.0 mi East 13.8 mph - N/A   Scattered Clouds
9:35 AM 57.2 °F 41.0 °F 55% 29.85 in 10.0 mi East 12.7 mph 18.4 mph N/A   Scattered Clouds
9:55 AM 55.4 °F 42.8 °F 63% 29.84 in 10.0 mi East 11.5 mph 17.3 mph N/A   Overcast
10:15 AM 59.0 °F 42.8 °F 55% 29.79 in 10.0 mi East 10.4 mph 16.1 mph N/A   Scattered Clouds
10:35 AM 59.0 °F 42.8 °F 55% 29.78 in 10.0 mi East 12.7 mph - N/A   Clear
10:55 AM 59.0 °F 44.6 °F 59% 29.78 in 10.0 mi East 12.7 mph - N/A   Clear
11:15 AM 60.8 °F 44.6 °F 55% 29.78 in 10.0 mi East 9.2 mph - N/A   Clear
11:35 AM 60.8 °F 44.6 °F 55% 29.78 in 10.0 mi East 13.8 mph 18.4 mph N/A   Clear
11:55 AM 59.0 °F 44.6 °F 59% 29.78 in 10.0 mi East 11.5 mph 20.7 mph N/A   Clear
12:15 PM 62.6 °F 46.4 °F 55% 29.80 in 10.0 mi NE 9.2 mph - N/A   Scattered Clouds
12:35 PM 62.6 °F 46.4 °F 55% 29.82 in 10.0 mi NE 12.7 mph - N/A   Mostly Cloudy
12:55 PM 64.4 °F 48.2 °F 56% 29.79 in 10.0 mi NE 16.1 mph 21.9 mph N/A   Mostly Cloudy
1:35 PM 64.4 °F 46.4 °F 52% 29.83 in 10.0 mi East 10.4 mph - N/A   Mostly Cloudy
1:55 PM 64.4 °F 46.4 °F 52% 29.83 in 10.0 mi East 9.2 mph - N/A   Overcast
2:15 PM 64.4 °F 46.4 °F 52% 29.83 in 10.0 mi ENE 6.9 mph - N/A   Overcast
2:35 PM 64.4 °F 48.2 °F 56% 29.82 in 10.0 mi NE 12.7 mph - N/A   Overcast
2:55 PM 68.0 °F 50.0 °F 52% 29.80 in 10.0 mi ENE 13.8 mph 17.3 mph N/A   Scattered Clouds
3:15 PM 68.0 °F 50.0 °F 52% 29.79 in 10.0 mi ENE 10.4 mph 19.6 mph N/A   Clear
3:35 PM 69.8 °F 50.0 °F 49% 29.78 in 10.0 mi ENE 12.7 mph 19.6 mph N/A   Clear
3:55 PM 69.8 °F 51.8 °F 53% 29.77 in 10.0 mi ENE 13.8 mph 19.6 mph N/A   Clear
4:15 PM 71.6 °F 50.0 °F 46% 29.76 in 10.0 mi NE 15.0 mph 21.9 mph N/A   Clear
4:35 PM 69.8 °F 50.0 °F 49% 29.76 in 10.0 mi East 16.1 mph 23.0 mph N/A   Clear
4:55 PM 69.8 °F 50.0 °F 49% 29.75 in 10.0 mi NE 16.1 mph 23.0 mph N/A   Clear
5:15 PM 66.2 °F 48.2 °F 52% 29.77 in 10.0 mi East 17.3 mph 23.0 mph N/A   Clear
5:35 PM 64.4 °F 46.4 °F 52% 29.76 in 10.0 mi ENE 17.3 mph 23.0 mph N/A   Clear
5:55 PM 64.4 °F 48.2 °F 56% 29.76 in 10.0 mi East 15.0 mph 23.0 mph N/A   Clear
6:15 PM 62.6 °F 48.2 °F 59% 29.77 in 10.0 mi East 11.5 mph 20.7 mph N/A   Clear
6:35 PM 62.6 °F 48.2 °F 59% 29.76 in 10.0 mi East 11.5 mph 18.4 mph N/A   Clear
6:55 PM 62.6 °F 50.0 °F 63% 29.76 in 10.0 mi ENE 10.4 mph 16.1 mph N/A   Clear
7:15 PM 62.6 °F 50.0 °F 63% 29.76 in 10.0 mi East 12.7 mph 19.6 mph N/A   Clear
7:35 PM 62.6 °F 50.0 °F 63% 29.76 in 10.0 mi East 12.7 mph - N/A   Clear
7:55 PM 60.8 °F 50.0 °F 68% 29.76 in 10.0 mi ENE 8.1 mph 16.1 mph N/A   Clear
8:15 PM 60.8 °F 50.0 °F 68% 29.76 in 10.0 mi East 13.8 mph 17.3 mph N/A   Clear
8:35 PM 59.0 °F 50.0 °F 72% 29.76 in 10.0 mi East 12.7 mph 20.7 mph N/A   Clear
8:55 PM 59.0 °F 50.0 °F 72% 29.77 in 10.0 mi East 9.2 mph 19.6 mph N/A   Clear
9:15 PM 57.2 °F 48.2 °F 72% 29.76 in 10.0 mi East 10.4 mph - N/A   Clear
9:35 PM 55.4 °F 48.2 °F 77% 29.77 in 10.0 mi East 10.4 mph 16.1 mph N/A   Clear
9:55 PM 55.4 °F 48.2 °F 77% 29.77 in 10.0 mi East 10.4 mph - N/A   Clear
10:20 PM 53.6 °F 48.2 °F 82% 29.78 in 10.0 mi East 10.4 mph - N/A   Clear
10:35 PM 53.6 °F 48.2 °F 82% 29.78 in 10.0 mi East 6.9 mph - N/A   Clear
10:55 PM 53.6 °F 48.2 °F 82% 29.77 in 10.0 mi East 8.1 mph - N/A   Clear
11:10 PM 53.6 °F 48.2 °F 82% 29.76 in 10.0 mi East 10.4 mph - N/A   Clear
11:55 PM 53.6 °F 48.2 °F 82% 29.76 in 10.0 mi East 6.9 mph - N/A   Clear